Location: Anciles
(42.5833°N, 0.5167°E)
Time: 17:36:19
(UTC+00:00)

Cosmos 2297 - Pass Details

Date: 10 December 2019
Orbit: 836 x 858 km, 71.0° (Epoch: 21 January)

Event Time Altitude Azimuth Distance (km) Brightness Sun altitude
Rises 18:08:31 0° 337° (NNW) 3,428 7.0 -18.4°
Reaches altitude 10° 18:11:00 10° 339° (NNW) 2,485 6.2 -18.9°
Maximum altitude 18:16:42 74° 64° (ENE) 882 3.6 -19.9°
Drops below altitude 10° 18:22:20 10° 150° (SSE) 2,454 5.9 -20.9°
Sets 18:24:46 0° 152° (SSE) 3,382 6.7 -21.3°
